CW6261 Weather Reports


Display with metric or nautical units.
time (UTC)temp
F
wind
direction
speed
MPH
gust
MPH
rain 1hr
in
rain 24hr
in
rain mn
in
humidity
%
barometer
mb
20260904132701 79 248 3.0 5.0 0.00 0.00 0.00 90 101.3
20260904132201 78 271 3.0 5.0 0.00 0.00 0.00 91 101.3
20260904131702 78 212 2.0 4.0 0.00 0.00 0.00 91 101.3
20260904131202 78 242 3.0 4.0 0.00 0.00 0.00 90 101.3
20260904130702 78 255 2.0 3.0 0.00 0.00 0.00 91 101.3
20260904130202 78 201 1.0 4.0 0.00 0.00 0.00 91 101.3
20260904125202 78 248 1.0 4.0 0.00 0.00 0.00 91 101.3
20260904124702 78 256 1.0 4.0 0.00 0.00 0.00 91 101.3
20260904124202 78 194 2.0 6.0 0.00 0.00 0.00 91 101.3
20260904123702 78 240 2.0 3.0 0.00 0.00 0.00 91 101.3
20260904123202 78 202 2.0 3.0 0.00 0.00 0.00 90 101.2
20260904122701 78 152 2.0 3.0 0.00 0.00 0.00 90 101.2
20260904121202 78 221 1.0 2.0 0.00 0.00 0.00 89 101.2
20260904120202 78 232 1.0 4.0 0.00 0.00 0.00 89 101.2
20260904115702 78 172 1.0 6.0 0.00 0.00 0.00 89 101.2
20260904115202 78 202 2.0 4.0 0.00 0.00 0.00 89 101.2
20260904114702 78 197 1.0 3.0 0.00 0.00 0.00 89 101.2
20260904114202 78 183 7.0 7.0 0.00 0.00 0.00 88 101.2
20260904113703 79 164 3.0 6.0 0.00 0.00 0.00 88 101.2
20260904113202 79 113 1.0 4.0 0.00 0.00 0.00 88 101.2
20260904112702 79 177 1.0 5.0 0.00 0.00 0.00 87 101.2
20260904112202 79 198 1.0 4.0 0.00 0.00 0.00 87 101.2
20260904110203 79 180 4.0 5.0 0.00 0.00 0.00 86 101.2
20260904105702 79 213 3.0 5.0 0.00 0.00 0.00 86 101.2
20260904104702 79 168 1.0 5.0 0.00 0.00 0.00 86 101.2
20260904104202 79 319 1.0 4.0 0.00 0.00 0.00 86 101.2
20260904103702 79 162 1.0 4.0 0.00 0.00 0.00 86 101.2
20260904103202 79 208 3.0 6.0 0.00 0.00 0.00 86 101.2
20260904102202 79 162 2.0 5.0 0.00 0.00 0.00 86 101.2
20260904101702 79 185 1.0 4.0 0.00 0.00 0.00 85 101.2
20260904101201 79 212 2.0 8.0 0.00 0.00 0.00 85 101.2
20260904100702 79 232 4.0 11.0 0.00 0.00 0.00 84 101.2
20260904095202 79 201 5.0 9.0 0.00 0.00 0.00 84 101.1
20260904094702 79 269 4.0 5.0 0.00 0.00 0.00 84 101.1
20260904094202 79 179 3.0 9.0 0.00 0.00 0.00 84 101.1
20260904093702 79 242 3.0 5.0 0.00 0.00 0.00 84 101.1
20260904093202 79 213 4.0 6.0 0.00 0.00 0.00 84 101.1
20260904092702 79 200 3.0 7.0 0.00 0.00 0.00 84 101.1
20260904092201 79 240 1.0 9.0 0.00 0.00 0.00 84 101.1
20260904091202 79 179 5.0 8.0 0.00 0.00 0.00 84 101.1
20260904090702 80 172 4.0 6.0 0.00 0.00 0.00 84 101.1
20260904090201 80 199 2.0 6.0 0.00 0.00 0.00 83 101.1
20260904085702 80 185 2.0 7.0 0.00 0.00 0.00 83 101.1
20260904085202 80 244 2.0 5.0 0.00 0.00 0.00 83 101.1
20260904084702 80 180 3.0 11.0 0.00 0.00 0.00 83 101.1
20260904084202 80 243 3.0 8.0 0.00 0.00 0.00 83 101.1
20260904083701 80 175 2.0 14.0 0.00 0.00 0.00 83 101.1
20260904083202 80 216 4.0 9.0 0.00 0.00 0.00 83 101.1
20260904082702 80 198 6.0 7.0 0.00 0.00 0.00 82 101.1
20260904082202 80 169 3.0 7.0 0.00 0.00 0.00 82 101.1
20260904081701 80 242 3.0 6.0 0.00 0.00 0.00 82 101.1
20260904081202 80 224 5.0 7.0 0.00 0.00 0.00 82 101.1
20260904080702 80 241 4.0 6.0 0.00 0.00 0.00 82 101.1
20260904075702 80 246 5.0 5.0 0.00 0.00 0.00 82 101.1
20260904075202 80 219 2.0 10.0 0.00 0.00 0.00 82 101.1
20260904074202 80 222 3.0 6.0 0.00 0.00 0.00 81 101.1
20260904072702 80 200 4.0 10.0 0.00 0.00 0.00 81 101.2
20260904072201 80 218 4.0 7.0 0.00 0.00 0.00 81 101.2
20260904071701 80 182 6.0 7.0 0.00 0.00 0.00 81 101.2
20260904070702 80 177 1.0 8.0 0.00 0.00 0.00 81 101.2
20260904070203 80 215 2.0 5.0 0.00 0.00 0.00 80 101.1
20260904065702 80 185 6.0 8.0 0.00 0.00 0.00 80 101.1
20260904065201 80 239 4.0 6.0 0.00 0.00 0.00 80 101.1
20260904064701 80 223 1.0 7.0 0.00 0.00 0.00 80 101.1
20260904064201 80 226 2.0 9.0 0.00 0.00 0.00 80 101.1
20260904063202 80 192 5.0 9.0 0.00 0.00 0.00 80 101.1
20260904062202 80 222 6.0 7.0 0.00 0.00 0.00 80 101.2
20260904061702 80 204 4.0 8.0 0.00 0.00 0.00 80 101.2
20260904061201 80 211 2.0 7.0 0.00 0.00 0.00 80 101.2
20260904060701 80 184 4.0 8.0 0.00 0.00 0.00 80 101.2
20260904060201 80 180 6.0 8.0 0.00 0.00 0.00 80 101.1
20260904055702 80 210 4.0 7.0 0.00 0.00 0.00 80 101.1
20260904055202 80 217 4.0 8.0 0.00 0.00 0.00 80 101.1
20260904054702 80 169 5.0 8.0 0.00 0.00 0.00 80 101.1
20260904054202 80 222 6.0 10.0 0.00 0.00 0.00 80 101.1
20260904053702 80 180 3.0 6.0 0.00 0.00 0.00 80 101.1
20260904053202 80 177 1.0 7.0 0.00 0.00 0.00 80 101.1
20260904052702 80 208 3.0 8.0 0.00 0.00 0.00 80 101.2
20260904052202 80 202 7.0 9.0 0.00 0.00 0.00 80 101.2
20260904051701 80 185 5.0 8.0 0.00 0.00 0.00 80 101.2
20260904051202 80 188 4.0 7.0 0.00 0.00 0.00 80 101.2
20260904050702 80 175 3.0 6.0 0.00 0.00 0.00 80 101.2
20260904050201 80 171 3.0 11.0 0.00 0.00 0.00 80 101.1
20260904045702 80 189 4.0 10.0 0.00 0.00 0.00 80 101.1
20260904045202 80 149 0.0 8.0 0.00 0.00 0.00 79 101.1
20260904044702 80 208 2.0 7.0 0.00 0.00 0.00 79 101.1
20260904044201 80 191 3.0 9.0 0.00 0.00 0.00 79 101.1
20260904043702 80 200 2.0 5.0 0.00 0.00 0.00 79 101.1
20260904043202 80 168 5.0 10.0 0.00 0.00 0.00 79 101.1
20260904042702 80 200 7.0 9.0 0.00 0.00 0.00 79 101.2
20260904042202 80 177 3.0 12.0 0.00 0.00 0.00 78 101.2
20260904041703 80 198 1.0 5.0 0.00 0.00 0.00 78 101.2
20260904041201 80 184 4.0 8.0 0.00 0.00 0.00 78 101.2
20260904040202 80 158 3.0 8.0 0.00 0.00 0.00 78 101.1
20260904035702 80 146 1.0 5.0 0.00 0.00 0.00 78 101.1
20260904035201 80 173 1.0 8.0 0.00 0.00 0.00 77 101.1
20260904034702 80 175 5.0 8.0 0.00 0.00 0.00 77 101.1
20260904034203 80 162 1.0 7.0 0.00 0.00 0.00 77 101.1
20260904033702 80 123 0.0 9.0 0.00 0.00 0.00 77 101.1
20260904033202 80 129 2.0 6.0 0.00 0.00 0.00 77 101.1
20260904032703 81 175 4.0 7.0 0.00 0.00 0.00 76 101.1
20260904032202 81 196 3.0 7.0 0.00 0.00 0.00 76 101.1
20260904031702 81 238 2.0 5.0 0.00 0.00 0.00 75 101.1
20260904031202 81 181 2.0 7.0 0.00 0.00 0.00 74 101.1
20260904030202 81 163 0.0 6.0 0.00 0.00 0.00 73 101.2
20260904025702 81 164 2.0 6.0 0.00 0.00 0.00 73 101.2
20260904025202 81 175 4.0 10.0 0.00 0.00 0.00 72 101.2
20260904024202 82 177 2.0 13.0 0.00 0.00 0.00 71 101.1
20260904023702 82 141 0.0 9.0 0.00 0.00 0.00 71 101.1
20260904023202 82 193 2.0 10.0 0.00 0.00 0.00 71 101.1
20260904022702 82 180 7.0 14.0 0.00 0.00 0.00 70 101.1
20260904022202 82 157 4.0 10.0 0.00 0.00 0.00 69 101.1
20260904021202 82 195 4.0 12.0 0.00 0.00 0.00 69 101.1
20260904020702 82 188 4.0 6.0 0.00 0.00 0.00 68 101.1
20260904020202 82 217 2.0 6.0 0.00 0.00 0.00 68 101.1
20260904015702 83 24 0.0 5.0 0.00 0.00 0.00 68 101.1
20260904015202 83 139 2.0 4.0 0.00 0.00 0.00 68 101.1
20260904014702 83 128 2.0 4.0 0.00 0.00 0.00 67 101.1
20260904013702 83 187 4.0 8.0 0.00 0.00 0.00 67 101.1
20260904013202 83 180 1.0 3.0 0.00 0.00 0.00 67 101.1
20260904012701 83 180 5.0 5.0 0.00 0.00 0.00 67 101.0
20260904011703 84 169 2.0 3.0 0.00 0.00 0.00 66 101.0
20260904011202 84 174 1.0 4.0 0.00 0.00 0.00 66 101.0
20260904010702 84 180 2.0 9.0 0.00 0.00 0.00 66 101.0
20260904010202 84 161 3.0 10.0 0.00 0.00 0.00 65 101.0
20260904005702 84 24 2.0 11.0 0.00 0.00 0.00 65 101.0
20260904005201 84 126 2.0 6.0 0.00 0.00 0.00 65 101.0
20260904004702 85 196 4.0 6.0 0.00 0.00 0.00 65 101.0
20260904004202 85 111 1.0 6.0 0.00 0.00 0.00 65 101.0
20260904003702 85 210 2.0 9.0 0.00 0.00 0.00 64 101.0
20260904003201 85 178 1.0 5.0 0.00 0.00 0.00 65 101.0
20260904002702 85 134 2.0 9.0 0.00 0.00 0.00 64 101.0
20260904002202 86 180 2.0 5.0 0.00 0.00 0.00 63 101.0
20260904001702 86 75 3.0 4.0 0.00 0.00 0.00 63 101.0
20260904001202 86 180 3.0 6.0 0.00 0.00 0.00 62 101.0
20260904000702 86 120 1.0 3.0 0.00 0.00 0.00 62 101.0
20260904000203 87 197 2.0 8.0 0.00 0.00 0.00 61 101.0
20260903235702 86 210 2.0 7.0 0.00 0.00 0.00 61 101.0
20260903234701 87 151 1.0 6.0 0.00 0.00 0.00 60 101.0
20260903234202 87 156 6.0 6.0 0.00 0.00 0.00 60 101.0
20260903233702 88 171 3.0 6.0 0.00 0.00 0.00 61 101.0
20260903233202 88 140 1.0 5.0 0.00 0.00 0.00 60 101.0
20260903232702 88 102 2.0 5.0 0.00 0.00 0.00 60 101.0
20260903232202 88 188 6.0 9.0 0.00 0.00 0.00 61 101.0
20260903231702 88 137 1.0 5.0 0.00 0.00 0.00 61 101.0
20260903231202 89 196 2.0 5.0 0.00 0.00 0.00 60 101.0
20260903230703 89 185 6.0 6.0 0.00 0.00 0.00 60 101.0
20260903230202 89 128 2.0 6.0 0.00 0.00 0.00 60 101.0
20260903225702 90 163 6.0 10.0 0.00 0.00 0.00 60 101.0
20260903225202 90 110 2.0 4.0 0.00 0.00 0.00 61 101.0
20260903224703 91 359 1.0 11.0 0.00 0.00 0.00 60 101.0
20260903224202 92 117 3.0 6.0 0.00 0.00 0.00 58 101.0
20260903223702 91 192 1.0 9.0 0.00 0.00 0.00 56 101.0
20260903222702 91 175 2.0 7.0 0.00 0.00 0.00 57 101.0
20260903222202 91 145 1.0 7.0 0.00 0.00 0.00 56 101.0
20260903221701 92 127 2.0 4.0 0.00 0.00 0.00 55 101.0
20260903221202 91 139 1.0 4.0 0.00 0.00 0.00 53 101.0
20260903220702 92 153 3.0 8.0 0.00 0.00 0.00 53 101.0
20260903220202 93 117 4.0 9.0 0.00 0.00 0.00 51 101.0
20260903215702 93 115 0.0 4.0 0.00 0.00 0.00 51 101.0
20260903215202 93 210 3.0 4.0 0.00 0.00 0.00 51 101.0
20260903214702 93 125 4.0 4.0 0.00 0.00 0.00 50 101.0
20260903213703 94 187 3.0 5.0 0.00 0.00 0.00 50 101.0
20260903212702 94 120 1.0 7.0 0.00 0.00 0.00 49 101.0
20260903212202 92 96 1.0 2.0 0.00 0.00 0.00 49 101.0
20260903211702 93 120 1.0 3.0 0.00 0.00 0.00 50 101.0
20260903211202 93 59 1.0 4.0 0.00 0.00 0.00 49 101.0
20260903210702 93 98 1.0 3.0 0.00 0.00 0.00 49 101.0
20260903205702 94 111 0.0 6.0 0.00 0.00 0.00 49 101.0
20260903205202 95 173 1.0 10.0 0.00 0.00 0.00 47 101.0
20260903204202 97 178 2.0 9.0 0.00 0.00 0.00 45 101.0
20260903203702 95 177 3.0 6.0 0.00 0.00 0.00 46 101.0
20260903203202 95 152 1.0 11.0 0.00 0.00 0.00 46 101.0
20260903202202 95 212 5.0 6.0 0.00 0.00 0.00 45 101.0
20260903201701 96 192 6.0 7.0 0.00 0.00 0.00 45 101.0
20260903200702 96 195 3.0 7.0 0.00 0.00 0.00 44 101.0
20260903200203 97 165 1.0 7.0 0.00 0.00 0.00 43 101.0
20260903195702 96 220 1.0 7.0 0.00 0.00 0.00 44 101.0
20260903195202 95 233 0.0 5.0 0.00 0.00 0.00 45 101.0
20260903194702 95 115 1.0 3.0 0.00 0.00 0.00 45 101.0
20260903194202 94 176 0.0 6.0 0.00 0.00 0.00 47 101.0
20260903193702 94 205 3.0 6.0 0.00 0.00 0.00 46 101.0
20260903193202 94 144 1.0 3.0 0.00 0.00 0.00 48 101.1
20260903192702 92 256 0.0 2.0 0.00 0.00 0.00 49 101.1
20260903192202 93 120 0.0 8.0 0.00 0.00 0.00 49 101.1
20260903191702 93 202 2.0 6.0 0.00 0.00 0.00 50 101.1
20260903191202 92 184 1.0 4.0 0.00 0.00 0.00 51 101.1
20260903185702 91 255 2.0 4.0 0.00 0.00 0.00 50 101.0
20260903185202 92 214 2.0 5.0 0.00 0.00 0.00 50 101.0
20260903184202 91 209 1.0 4.0 0.00 0.00 0.00 51 101.0
20260903183703 92 187 1.0 6.0 0.00 0.00 0.00 51 101.0
20260903182202 92 212 4.0 8.0 0.00 0.00 0.00 50 101.2
20260903181702 91 228 2.0 6.0 0.00 0.00 0.00 51 101.2
20260903181202 92 180 2.0 10.0 0.00 0.00 0.00 51 101.2
20260903180703 92 193 7.0 8.0 0.00 0.00 0.00 51 101.2
20260903180202 91 201 1.0 6.0 0.00 0.00 0.00 52 101.1
20260903175702 91 174 3.0 6.0 0.00 0.00 0.00 54 101.1
20260903175202 91 268 2.0 6.0 0.00 0.00 0.00 53 101.1
20260903174702 90 204 3.0 6.0 0.00 0.00 0.00 54 101.1
20260903174202 90 203 2.0 4.0 0.00 0.00 0.00 53 101.1
20260903173703 91 180 2.0 5.0 0.00 0.00 0.00 53 101.1
20260903173202 89 228 1.0 2.0 0.00 0.00 0.00 53 101.2
20260903172202 90 236 3.0 4.0 0.00 0.00 0.00 53 101.2
20260903171702 89 189 3.0 6.0 0.00 0.00 0.00 55 101.2
20260903171202 90 211 4.0 8.0 0.00 0.00 0.00 54 101.2
20260903170703 90 213 5.0 6.0 0.00 0.00 0.00 55 101.2
20260903165702 90 195 5.0 10.0 0.00 0.00 0.00 55 101.2
20260903165202 90 163 4.0 6.0 0.00 0.00 0.00 54 101.2
20260903164703 88 247 4.0 8.0 0.00 0.00 0.00 56 101.2
20260903163702 88 232 4.0 5.0 0.00 0.00 0.00 58 101.2
20260903163202 87 213 3.0 5.0 0.00 0.00 0.00 59 101.2
20260903162702 87 257 2.0 6.0 0.00 0.00 0.00 61 101.2
20260903162202 87 234 3.0 6.0 0.00 0.00 0.00 62 101.2
20260903161702 87 224 3.0 7.0 0.00 0.00 0.00 61 101.2
20260903161202 87 239 4.0 5.0 0.00 0.00 0.00 61 101.2
20260903160702 87 227 4.0 8.0 0.00 0.00 0.00 62 101.2
20260903160203 87 258 4.0 7.0 0.00 0.00 0.00 62 101.2
20260903155702 87 236 3.0 8.0 0.00 0.00 0.00 61 101.2
20260903154702 86 261 4.0 5.0 0.00 0.00 0.00 63 101.2
20260903154202 86 239 4.0 9.0 0.00 0.00 0.00 63 101.2
20260903153202 87 216 7.0 8.0 0.00 0.00 0.00 63 101.2
20260903152202 85 232 2.0 7.0 0.00 0.00 0.00 66 101.2
20260903151703 85 244 4.0 10.0 0.00 0.00 0.00 68 101.2
20260903151203 84 260 5.0 9.0 0.00 0.00 0.00 68 101.2
20260903150702 84 263 3.0 6.0 0.00 0.00 0.00 70 101.2
20260903150202 84 206 3.0 11.0 0.00 0.00 0.00 71 101.2
20260903145702 84 218 4.0 12.0 0.00 0.00 0.00 71 101.2
20260903145203 83 216 5.0 9.0 0.00 0.00 0.00 71 101.2
20260903144702 83 225 6.0 6.0 0.00 0.00 0.00 72 101.2
20260903144202 84 217 7.0 10.0 0.00 0.00 0.00 71 101.2
20260903143703 83 250 5.0 8.0 0.00 0.00 0.00 73 101.2
20260903142201 83 225 2.0 8.0 0.00 0.00 0.00 75 101.2
20260903141702 83 226 4.0 9.0 0.00 0.00 0.00 75 101.2
20260903141203 82 278 4.0 6.0 0.00 0.00 0.00 76 101.2
20260903140702 82 240 3.0 9.0 0.00 0.00 0.00 77 101.2
20260903135702 81 243 2.0 5.0 0.00 0.00 0.00 79 101.2
20260903134702 81 255 7.0 8.0 0.00 0.00 0.00 80 101.2
20260903133202 80 243 2.0 5.0 0.00 0.00 0.00 83 101.2